Location: A�t Lahcen
(32.8243°N, 5.4246°W)
Time: 00:08:18
(UTC+00:00)

deb Chang Zheng 4 - Pass Details

Date: 27 January 2021
Orbit: 599 x 623 km, 98.6° (Epoch: 27 February)

Event Time Altitude Azimuth Distance (km) Brightness Sun altitude
Rises 05:48:20 0° 7° (N) 2,856 6.9 -19.3°
Reaches altitude 10° 05:50:32 10° 2° (N) 1,947 6.0 -18.8°
Maximum altitude 05:54:39 54° 286° (WNW) 734 3.5 -18.0°
Drops below altitude 10° 05:58:44 10° 209° (SSW) 1,932 5.9 -17.1°
Sets 06:00:55 0° 204° (SSW) 2,831 6.8 -16.7°
